Weather in Srednyaya Olyokma

Russia / Zabaykalsky Krai     55°25′28″N   120°32′59″E
temp.,
°C
wind,
m/s
gust,
m/s
humid.,
%
clouds,
%
prec.,
mm/h
press.,
hPa
HPBL,
m
7 may, fri
fri700:00−2nne119391 0.0 100711
03:00−2nne119583 0.0 100711
06:00−1nne119255 0.0 100850
09:00+4nne136798 0.0 1006526
12:00+7nne4652100 0.5 10051733
15:00+8ne4745100 1.0 10041935
18:00+6ne4667100 0.4 1006913
21:00+2nne2678100 0.7 1008146
8 may, sat
sat800:00+1nnw1184100 0.0 100915
03:000nw1186100 0.0 100814
06:00+1nnw1182100 0.0 100940
09:00+4nne4761100 0.1 10081428
12:00+5ne5855100 0.6 10081620
15:00+7ne5746100 0.7 10082097
18:00+5ne476095 0.3 10081485
21:00+1nne227791 0.3 101016
9 may, sun
sun900:000n228666 0.0 101129
03:000n128893 0.0 101124
06:000n128654 0.0 101181
09:00+5nne2459100 0.0 10101029
12:00+7nne2451100 0.3 10081742
15:00+8ne3454100 1.0 10081547
18:00+7ne355891 0.4 10091360
21:00+2ne2182100 0.5 101113
10 may, mon
mon1000:00+1ene119094 0.0 101210
03:00+1n119499 0.0 1013104
06:00+2nne1199100 0.1 1014139
09:00+2ne1292100 0.1 1014399
12:00+6ene2368100 0.1 1014937
15:00+8ene2455100 0.2 10131402
18:00+8ene345399 0.1 10131372
21:00+3ne2280100 0.1 101511
11 may, tue
tue1100:00+2nne228886 0.0 101619
03:00+1nne1189100 0.0 101616
06:00+2nne118599 0.0 101656
09:00+5ne2378100 0.0 1014673
12:00+6e237596 0.1 1014810
15:00+8ese3366100 0.4 1012989
18:00+8e2361100 0.1 10111040
21:00+5ene1281100 0.2 101344